RH
88 85 87 79 80 91 91 93 90 98 98 88 100 100 100 100 98 92 100 97 81 85 77 62 48 67 65 80 89 73 93 94 95 95 93 79 78 74 70 66 89 84 93 91 84 95 92 33 31 54 35 33 35 35
90 70 70 83 92 90 94 93 100 100 100 100 100 100 100 100 100 97 100 100 66 77 81 76 72 66 56 50 63 63 69 66 78 82 74 70 71 80 71 72 54 83 81 85 82 75 39 31 24 25 36 34 30 34
72 80 90 88 97 100 100 100 100 100 99 98 98 99 100 100 98 98 99 99 70 83 73 67 66 58 58 53 48 68 65 58 59 63 72 78 80 73 89 80 62 51 49 54 47 47 45 32 26 29 31 27 29 34
93 100 98 99 99 100 100 100 100 100 99 98 98 98 99 99 99 97 96 86 60 77 86 70 57 59 56 54 44 45 56 63 69 68 85 92 81 68 85 68 67 53 49 49 54 44 36 32 27 28 30 34 39 41
98 99 100 99 99 98 100 100 100 100 97 92 86 87 91 97 70 63 58 56 47 59 83 75 66 60 67 57 52 55 59 70 80 86 90 83 74 76 89 80 81 62 54 54 54 38 39 40 41 42 45 48 50 52
99 99 99 100 100 99 98 94 89 89 89 92 94 98 94 66 49 39 62 51 49 44 86 88 72 66 64 64 67 73 76 81 77 82 82 77 76 69 92 95 66 65 56 44 50 43 50 48 52 51 54 58 59 68
99 99 99 99 93 84 82 91 90 89 90 91 90 87 63 46 36 82 82 79 48 43 87 94 94 64 66 72 83 81 82 90 81 90 90 84 84 85 95 96 59 56 53 51 49 54 66 57 63 59 63 62 62 63
98 100 98 94 88 87 90 91 88 87 91 91 91 84 64 53 54 70 73 54 46 43 80 93 91 80 58 79 87 89 91 90 93 95 96 93 88 95 100 80 67 64 67 67 59 62 65 64 67 67 64 66 72 72
96 96 96 93 88 89 89 91 93 90 88 88 67 50 46 69 90 92 73 54 46 52 87 85 86 89 68 87 86 90 91 97 90 100 99 87 95 100 78 73 69 67 62 68 70 66 67 74 75 73 72 73 76 74
97 97 90 89 91 91 92 92 89 88 86 52 45 62 95 99 96 65 47 78 83 91 94 96 88 91 76 79 87 84 93 98 100 84 90 98 92 71 81 82 72 81 80 84 88 79 68 76 73 74 77 73 74 75
96 96 95 96 89 87 90 90 89 72 53 49 91 98 87 69 60 84 90 84 90 83 88 97 90 94 86 85 96 88 97 97 100 88 96 96 95 90 84 80 82 80 76 82 83 80 78 80 84 84 82 77 76 76
99 99 96 86 84 87 90 96 67 52 59 60 76 77 61 74 83 70 100 86 85 89 96 94 96 96 99 93 93 94 97 95 100 90 96 97 94 79 85 82 77 76 79 83 80 86 82 80 81 83 87 86 83 81
100 96 92 88 87 97 96 74 53 48 53 45 57 71 77 83 55 44 62 81 88 93 97 99 95 96 95 94 99 93 100 96 82 98 95 95 88 86 87 86 84 78 82 87 83 80 80 81 82 85 90 90 88 90
98 92 92 95 99 94 77 60 47 33 31 75 66 46 74 74 72 84 80 85 86 95 98 98 100 94 99 98 100 98 94 95 99 100 97 97 91 83 86 88 92 85 84 86 84 84 86 86 86 88 89 95 96 93
94 93 95 97 96 93 82 48 36 36 51 84 73 55 85 85 99 98 98 98 98 98 96 95 93 92 100 98 99 94 96 100 96 93 91 90 79 87 88 82 85 84 84 87 85 86 85 87 90 90 90 96 97 97
91 90 89 92 96 63 47 40 42 57 83 88 90 89 96 96 100 100 100 96 97 98 93 87 100 99 100 100 100 100 99 99 84 92 96 90 88 89 88 82 82 83 86 87 87 88 90 92 93 93 95 96 97 99
77 90 96 85 55 51 51 51 60 96 96 96 100 96 97 97 96 98 98 97 97 94 92 96 85 81 96 100 100 94 97 88 95 95 93 93 93 89 86 85 81 80 84 87 90 91 92 94 96 96 94 91 98 98
94 92 81 64 53 50 64 78 87 95 98 100 96 97 98 99 97 96 98 99 98 100 96 90 91 96 99 100 97 89 96 97 95 93 88 88 90 86 84 86 82 84 88 93 92 94 95 95 94 93 96 97 97 97
85 88 79 66 57 63 90 91 86 100 94 97 91 92 83 88 95 96 97 96 96 96 95 98 100 98 95 95 94 96 98 99 96 91 88 85 83 86 86 84 89 93 91 91 94 93 94 97 97 98 98 97 96 98
85 70 62 55 56 75 94 95 83 93 92 96 96 99 99 99 98 95 94 95 97 98 97 98 97 95 93 94 94 95 93 94 99 95 86 79 76 81 86 89 93 90 94 92 93 91 96 95 94 96 97 97 96 97
54 64 56 49 66 76 96 100 100 97 94 99 100 100 100 100 98 97 100 97 98 100 100 96 96 93 92 93 90 94 96 96 97 95 92 92 80 89 92 92 93 94 93 92 93 92 94 96 96 96 96 96 97 98
76 69 58 73 82 86 97 98 99 98 99 100 99 100 100 100 100 100 99 100 100 98 98 100 98 99 94 95 91 90 93 97 100 100 93 92 94 91 89 91 95 91 92 94 96 95 96 97 96 96 96 97 96 95
70 64 74 71 82 89 94 86 94 98 95 98 100 92 100 100 100 96 100 100 97 92 95 96 94 92 96 93 95 94 92 97 96 94 93 94 95 98 98 97 97 95 93 93 96 97 96 97 97 95 96 96 96 98
64 80 97 92 96 100 96 99 98 97 98 99 98 87 95 100 98 100 100 97 95 96 97 95 94 91 81 78 91 90 93 97 97 96 96 98 95 92 93 97 98 96 97 96 96 96 96 96 97 96 96 97 96 95
81 88 93 100 99 98 100 100 100 92 99 100 92 92 98 100 100 100 98 96 96 96 92 91 91 92 94 87 85 89 92 98 96 94 89 94 98 97 94 94 96 96 96 96 96 96 96 96 96 96 96 96 95 96
96 98 91 100 100 95 99 95 98 93 100 99 100 99 100 100 100 96 97 98 96 94 93 93 93 91 87 92 93 89 91 97 98 96 90 97 97 97 95 96 96 95 96 96 94 96 96 96 96 96 97 96 93 96
98 100 99 89 94 89 94 93 87 96 100 94 100 100 100 100 99 96 95 95 94 93 97 98 97 95 94 93 95 97 97 97 97 94 95 96 96 96 97 96 95 96 97 96 96 95 96 96 96 97 97 97 96 96
100 100 99 99 99 100 98 100 100 100 100 96 96 99 97 94 96 96 96 95 96 96 95 95 96 96 97 96 96 96 95 96 96 96 96 95 96 96 96 96 96 96 96 95 95 95 96 97 97 98 97 97 97 99
100 95 96 100 100 100 100 98 99 98 93 98 98 98 98 89 96 95 94 95 95 95 96 96 93 95 95 96 95 96 96 95 95 94 94 94 94 95 96 96 96 96 95 96 98 95 95 95 95 95 98 99 96 91
100 98 97 100 98 94 98 100 100 99 97 96 92 95 94 93 96 96 94 94 96 97 96 96 96 96 96 96 95 95 96 95 95 96 95 95 95 96 96 96 96 97 99 98 97 97 99 99 97 90 89 92 92 92
97 99 97 100 100 99 99 100 100 92 98 100 99 98 98 95 94 95 95 96 96 95 96 96 95 96 97 96 96 95 94 95 96 96 95 95 96 95 95 95 95 95 95 95 95 94 91 90 90 91 92 96 98 92
96 100 100 97 100 98 97 100 100 100 100 100 100 100 96 97 96 95 95 95 94 96 96 97 97 95 96 96 96 96 96 96 94 93 94 93 95 95 94 90 86 84 82 80 80 79 78 83 89 92 91 91 90 91
100 100 100 100 100 100 99 97 100 100 100 100 100 100 100 98 97 94 94 97 99 97 97 96 96 96 96 96 96 96 96 99 98 99 100 97 86 79 78 76 73 70 68 68 70 71 75 78 83 86 88 90 92 92
Wind_Speed
35 39 40 42 39 34 30 28 26 23 31 25 33 39 39 31 29 18 11 12 5 2 1 2 1 4 3 3 4 4 3 1 2 3 3 3 4 4 2 2 4 5 6 4 5 3 7 3 2 2 2 1 4 2
37 41 43 37 30 26 21 20 25 33 33 32 32 29 26 27 23 19 7 11 4 3 3 2 6 4 2 2 4 1 1 3 4 2 0 2 2 0 1 3 0 2 3 3 4 1 4 2 4 1 3 2 0 2
34 29 26 20 19 28 33 34 34 32 30 27 24 24 24 21 18 13 15 15 4 3 3 2 2 5 5 4 3 4 1 3 3 1 3 2 2 3 3 4 1 2 1 1 1 1 4 1 1 4 5 4 3 4
8 26 30 38 36 34 33 32 31 28 26 24 21 19 19 21 18 16 11 15 4 4 3 1 3 4 5 3 1 2 8 6 6 2 2 2 2 2 2 1 2 3 3 3 3 5 2 1 4 4 6 5 6 7
33 34 35 37 35 33 31 30 30 28 26 24 22 20 20 19 18 19 17 8 5 4 3 2 2 5 6 5 9 9 14 5 2 2 2 2 2 2 1 1 3 4 5 4 5 6 4 5 5 4 5 7 8 8
28 30 30 33 34 33 32 30 27 26 24 23 22 21 21 22 22 16 3 5 7 8 4 2 1 4 6 11 14 12 7 3 2 2 2 1 1 2 2 3 5 4 3 3 4 2 5 6 7 5 5 7 9 9
33 33 32 33 32 32 30 29 27 26 25 25 25 21 16 13 9 9 3 1 6 6 3 2 1 2 2 3 3 3 6 2 2 1 1 1 0 3 2 3 4 3 4 4 4 2 4 3 5 10 11 16 18 18
33 33 33 33 31 30 29 29 28 26 23 24 25 23 21 21 18 11 14 6 6 9 4 3 0 1 2 1 2 3 2 2 3 1 1 2 1 2 2 5 3 2 4 4 1 4 7 9 12 13 17 15 12 13
36 35 34 33 33 31 29 28 28 25 26 24 23 21 13 8 4 3 5 8 10 6 3 2 3 2 2 1 2 2 1 2 1 1 2 3 2 4 5 5 2 2 1 6 8 9 9 8 11 12 11 13 14 14
34 38 36 34 33 31 29 27 27 25 21 17 6 7 3 3 2 1 2 3 4 4 3 2 1 2 2 1 2 2 2 1 0 2 2 2 3 2 1 2 2 3 2 2 5 11 12 14 14 14 15 15 15 16
38 36 35 34 32 30 27 27 24 20 11 3 3 2 3 3 2 4 3 3 3 3 2 1 1 3 3 3 2 1 2 0 1 3 2 2 2 2 3 3 3 5 9 8 9 12 16 16 16 17 17 19 22 24
41 38 35 32 29 26 26 23 19 7 4 7 14 8 3 5 3 6 1 3 2 2 1 3 0 2 1 2 3 1 2 2 3 0 1 2 2 4 2 4 6 9 12 11 16 14 20 21 23 20 19 21 25 28
37 32 28 26 25 26 21 17 9 16 20 6 5 4 4 4 7 5 1 3 1 1 1 1 2 1 3 3 2 2 2 3 2 1 3 3 3 2 4 4 9 14 15 16 18 20 20 21 24 23 22 27 28 28
31 29 26 25 24 19 18 16 19 5 3 3 4 4 3 4 1 3 3 3 2 2 2 2 2 2 1 3 1 1 2 0 2 1 4 2 4 4 5 5 6 11 9 10 14 20 20 20 22 26 26 27 26 25
30 27 25 23 23 20 16 15 6 4 4 3 3 1 0 2 1 2 2 1 1 1 2 2 3 2 2 3 1 2 4 3 5 4 3 2 4 5 7 9 9 10 11 11 17 17 20 22 22 25 27 27 27 27
30 29 23 20 17 16 12 7 5 4 5 3 5 4 0 3 3 2 1 0 1 1 2 3 3 4 2 3 2 5 5 5 3 3 2 3 5 6 8 9 11 15 16 17 19 21 23 23 22 24 29 26 22 21
18 9 17 16 15 11 7 4 4 5 4 4 2 1 2 2 3 2 2 2 1 2 2 3 3 6 1 2 2 4 5 3 2 3 3 4 7 9 10 13 15 18 18 19 21 22 23 26 25 22 12 21 20 15
27 18 14 12 9 8 5 7 5 4 5 1 3 1 1 2 2 1 1 1 2 2 2 3 4 2 4 5 3 3 2 2 3 5 6 7 8 13 14 13 18 19 20 21 22 24 23 20 16 10 17 17 14 10
18 12 10 7 4 4 4 5 5 3 1 0 2 2 2 2 2 1 0 1 1 2 3 2 2 3 3 3 2 2 2 3 4 7 7 14 17 16 16 19 19 18 18 20 21 18 20 20 14 15 15 12 7 9
16 13 8 7 3 4 4 3 3 3 2 1 2 2 1 0 2 1 1 2 1 2 1 2 3 2 2 2 2 4 5 4 3 8 9 6 12 15 15 16 16 20 19 19 18 19 16 11 13 13 11 8 7 8
8 8 6 4 5 9 4 2 3 2 1 2 2 1 1 2 2 2 1 2 2 2 2 2 2 2 6 12 15 13 12 10 6 5 8 10 15 15 16 17 17 16 14 13 11 13 14 8 11 8 8 11 13 13
4 5 3 5 6 4 4 5 2 1 2 1 2 2 2 2 2 2 2 2 2 3 2 2 2 2 5 5 12 15 19 19 16 16 18 18 6 6 10 15 14 11 12 13 12 9 10 8 5 7 9 11 13 16
4 4 5 7 5 5 2 4 3 4 2 2 2 3 3 2 2 3 1 2 3 3 4 4 8 15 14 20 19 19 17 16 11 12 14 14 16 17 16 17 15 13 9 12 12 8 5 3 7 12 14 16 16 17
5 6 4 3 3 1 2 4 2 3 3 3 3 2 3 2 3 3 1 2 2 2 2 6 11 8 12 11 6 11 14 14 13 15 14 13 10 13 15 16 16 14 12 11 4 1 5 8 10 14 14 15 16 17
5 6 4 4 3 4 5 4 5 4 2 1 2 3 2 2 2 2 1 2 2 2 4 10 11 8 7 7 10 14 16 13 11 6 16 14 15 13 12 13 8 6 4 2 5 7 10 13 14 15 15 17 20 21
5 4 3 0 2 3 2 2 1 1 1 3 2 2 2 2 3 2 1 2 2 3 7 8 8 8 7 10 8 12 18 18 15 10 15 12 12 9 6 4 2 4 1 5 10 13 13 15 18 19 21 24 26 25
3 2 2 1 1 2 2 2 2 3 1 0 2 2 3 2 2 1 1 2 3 12 18 18 15 13 12 18 20 21 22 20 13 10 8 10 8 7 5 2 1 2 6 10 14 18 19 21 22 21 22 23 24 24
2 1 2 2 2 1 3 1 2 2 2 2 1 1 3 4 1 2 2 10 18 19 19 18 16 16 17 18 18 20 18 14 6 2 3 8 12 12 11 7 8 10 14 19 24 24 24 24 24 24 25 25 26 26
2 2 1 3 3 2 1 2 2 1 1 2 2 2 2 1 2 4 6 17 18 15 13 15 19 21 19 15 15 16 19 17 11 7 7 5 5 15 14 14 16 18 19 21 21 26 30 31 31 32 31 31 32 32
2 2 2 1 2 1 2 1 2 2 1 1 2 2 2 2 2 4 12 19 15 14 15 15 15 15 14 14 14 17 19 18 17 10 3 4 6 11 17 19 21 22 24 28 30 30 27 31 31 32 33 31 31 32
2 2 2 2 1 2 2 3 4 3 3 2 2 1 2 2 3 3 13 19 15 15 14 15 18 18 16 17 14 12 11 19 14 12 10 10 12 15 18 21 24 25 26 27 27 28 29 29 29 29 30 28 25 30
3 2 1 2 2 2 4 2 1 1 3 2 2 1 3 2 2 4 13 21 18 16 16 17 16 19 20 17 16 13 9 13 14 13 12 12 13 13 15 17 19 23 26 29 31 31 32 32 30 29 31 30 29 29
2 1 1 1 3 4 3 2 4 4 2 2 2 1 1 1 2 3 10 17 15 14 19 17 14 14 15 15 15 15 15 15 13 11 11 11 12 13 16 18 21 24 27 30 30 30 31 32 32 31 30 29 27 25
Wind_Direction
274 275 272 274 273 268 259 253 238 217 199 202 187 183 180 173 179 167 131 150 98 87 17 24 112 132 136 149 152 149 137 155 100 187 177 199 202 210 229 192 190 180 173 186 208 240 253 299 1 118 178 112 127 44
275 271 273 267 261 251 234 198 186 175 169 167 168 170 172 159 156 161 124 164 137 93 121 95 87 84 101 108 123 1 138 139 153 158 154 102 180 150 183 241 345 234 189 190 195 193 166 16 140 167 122 138 165 329
270 265 262 242 206 167 153 148 147 145 148 151 145 149 151 146 149 147 136 149 122 100 54 95 50 56 90 78 152 136 241 151 126 129 147 150 180 140 183 240 218 253 165 207 23 171 175 91 195 136 174 207 260 271
212 146 136 122 119 121 124 126 124 125 127 128 131 143 158 159 159 170 151 167 170 106 113 102 44 40 12 43 134 169 132 102 98 85 113 144 164 155 215 178 200 212 148 180 280 278 272 279 202 234 258 269 257 247
107 110 113 116 120 124 125 121 121 125 126 130 135 140 143 148 159 160 132 127 135 122 126 115 111 25 40 82 94 105 115 106 116 88 99 180 123 131 50 67 240 188 187 168 223 220 185 235 259 236 234 250 250 255
134 132 130 129 128 127 126 126 128 126 125 126 131 137 136 143 141 131 68 64 115 108 104 125 5 28 61 92 82 63 61 72 83 125 169 200 282 131 147 203 257 244 239 189 243 258 202 250 271 272 270 264 256 244
138 134 132 130 129 129 128 125 121 120 120 120 122 126 132 132 140 66 94 138 127 118 90 81 94 18 60 73 50 47 43 58 76 99 107 151 270 133 134 213 239 248 279 283 234 269 283 221 259 290 276 281 281 276
142 139 137 137 135 130 128 125 124 125 123 121 117 111 110 112 104 62 47 94 102 97 66 105 49 85 18 69 72 2 64 29 12 121 102 175 53 74 262 245 265 263 279 274 270 242 246 276 288 287 288 286 283 280
147 143 143 138 134 132 130 129 126 125 123 120 115 113 106 52 59 92 41 61 71 75 115 96 136 174 19 79 86 59 67 64 321 159 240 140 180 223 228 219 194 62 357 290 312 311 301 272 272 274 279 283 281 279
147 141 140 138 135 131 131 129 129 128 126 124 97 56 63 47 85 50 40 29 21 344 30 84 25 110 62 43 47 80 14 98 78 246 158 217 244 225 244 99 162 267 317 338 313 305 306 298 292 290 285 282 278 277
141 141 137 132 131 131 132 133 132 131 120 69 67 72 108 86 73 32 50 64 333 32 16 91 112 128 0 102 143 66 179 217 64 262 173 247 240 255 301 351 315 308 294 275 247 263 275 277 283 288 288 282 281 279
137 130 128 131 131 133 136 136 139 123 93 119 118 114 85 36 42 82 1 330 53 164 8 123 250 126 32 30 94 355 129 73 238 297 78 257 256 231 258 284 290 288 288 283 279 268 275 278 278 280 281 280 279 280
123 127 129 131 132 131 132 139 132 120 118 103 64 59 52 320 46 95 191 313 31 237 221 142 50 106 21 47 63 92 87 220 347 25 230 219 247 242 257 278 288 284 280 276 285 287 285 286 288 286 285 284 283 281
122 123 123 124 124 124 131 129 131 85 68 69 83 37 85 334 212 175 173 176 232 130 138 113 68 84 66 55 105 130 244 137 0 309 235 228 222 250 267 253 271 291 290 285 292 296 294 294 293 293 289 287 287 284
114 116 117 118 121 119 123 128 94 67 66 84 65 86 102 207 141 233 224 311 275 139 89 63 51 81 16 80 50 72 18 265 207 230 224 222 279 278 294 303 297 300 300 297 296 298 298 297 297 295 296 295 292 288
110 107 110 116 114 117 119 109 65 63 60 74 54 74 81 66 332 358 29 342 341 113 94 53 98 56 322 138 79 215 133 224 247 215 244 295 299 290 294 298 297 294 294 296 298 299 299 299 297 296 298 297 300 303
103 102 119 113 115 117 109 74 51 45 98 51 357 10 118 89 169 210 159 239 336 73 165 110 99 218 98 50 269 189 207 226 223 285 258 247 270 288 297 297 298 303 303 302 300 300 299 298 297 296 300 311 314 320
110 115 116 112 114 100 55 39 77 72 64 259 80 260 88 137 125 126 225 224 89 120 110 207 127 131 193 183 244 240 259 265 242 262 277 281 278 289 295 294 300 302 302 300 301 299 298 297 300 308 309 316 322 349
109 106 108 97 67 80 65 29 40 95 75 30 60 23 57 63 71 81 134 131 172 145 113 66 102 212 235 215 239 267 253 231 288 301 292 288 282 281 288 297 296 295 301 302 300 300 299 298 310 311 313 327 349 10
105 95 85 64 57 84 60 0 25 77 110 223 34 31 2 41 314 314 30 26 48 74 29 207 220 228 217 239 233 274 282 279 282 297 295 292 296 298 291 288 296 302 303 301 301 309 310 319 329 337 349 19 41 36
86 59 57 63 59 59 87 20 44 25 98 87 303 36 259 4 36 24 347 324 63 188 242 223 242 252 268 273 279 276 275 266 262 253 281 293 298 290 295 294 295 296 295 300 303 312 325 320 339 5 44 53 63 71
63 46 68 43 73 54 77 24 92 24 77 181 47 20 44 43 334 315 284 53 221 242 199 219 249 269 302 288 291 286 286 289 276 269 279 285 288 294 298 298 297 295 298 295 300 307 324 357 29 55 71 78 86 86
57 37 56 30 69 42 286 3 67 360 88 306 20 44 359 346 243 327 355 221 254 243 247 266 278 297 285 292 294 292 294 286 275 274 279 281 281 283 283 285 284 283 288 294 314 312 327 36 79 90 85 83 78 79
40 51 54 54 53 201 8 18 24 40 36 31 42 7 333 269 317 51 253 264 264 258 246 292 309 305 304 296 292 295 297 293 285 285 281 277 283 287 284 285 289 289 288 295 297 83 90 93 100 94 92 89 88 88
67 345 65 357 342 58 35 9 349 46 43 323 47 353 318 350 40 7 264 289 304 310 320 319 313 304 297 295 296 299 303 294 285 289 297 293 281 289 296 306 298 319 304 205 133 111 100 101 99 98 97 99 96 92
72 316 72 189 309 90 196 56 12 238 120 8 246 271 11 72 50 280 284 309 315 316 324 320 314 311 306 301 300 307 307 308 296 280 292 320 315 305 296 303 317 350 24 170 144 123 114 113 111 109 106 104 102 96
70 322 327 348 118 113 67 37 47 97 83 172 275 23 58 41 278 274 31 34 312 317 316 311 306 300 298 306 309 312 318 317 296 271 292 341 360 2 342 306 342 37 130 138 128 114 106 101 98 98 95 92 93 97
140 27 115 287 55 12 131 64 113 186 244 231 98 18 159 193 282 356 339 335 333 330 332 338 338 326 315 318 331 330 336 1 13 341 59 44 47 53 61 86 100 120 129 133 124 116 111 108 104 101 99 95 92 98
47 349 89 15 11 33 155 155 204 247 356 124 147 265 253 269 359 343 331 340 346 344 332 337 344 357 359 14 20 13 24 27 17 33 38 29 17 21 63 90 104 109 112 110 120 128 125 118 113 107 104 102 107 111
342 340 84 52 86 313 259 168 248 285 303 292 293 295 284 284 351 353 356 356 349 339 339 338 342 349 345 348 346 6 27 37 40 33 25 28 14 62 85 93 99 102 106 107 107 106 106 108 109 109 108 106 107 108
351 35 64 59 201 256 248 308 296 267 19 356 339 217 275 311 323 353 3 1 358 1 356 352 357 5 357 353 350 347 2 24 37 48 61 80 90 98 104 109 114 117 115 112 111 111 112 105 106 107 106 103 104 109
13 68 89 13 303 295 18 44 8 46 342 17 320 330 323 322 304 359 2 1 2 358 354 354 350 346 5 12 24 29 25 33 39 49 62 77 90 98 108 115 121 123 123 122 121 121 121 117 114 113 115 116 116 115
35 36 22 36 3 4 339 42 19 354 21 20 324 323 244 321 297 323 355 2 358 344 343 348 357 14 25 32 38 47 53 57 57 59 65 75 88 104 114 120 124 125 125 123 123 124 123 122 120 120 119 118 116 115